Погода в Новой Праге

Украина / Кировоградская область     48°34′06″N   32°54′39″E
темп.,
°C
ветер,
м/с
пор.,
м/с
влажн.,
%
обл.,
%
осадки,
мм/ч
давл.,
гПа
погр.,
м
8 мая, сб
сб800:00+14ю71559100 0.0 1010801
03:00+13ю61376100 0.1 1009554
06:00+12ю71579100 0.4 1007712
09:00+12ююз71393100 3.9 1007650
12:00+14зсз8107798 5.4 10091029
15:00+10сз71177100 5.6 1012950
18:00+12сз71160100 0.0 10131563
21:00+7сз71374100 0.1 1016737
9 мая, вс
вс900:00+5сз612865 0.0 1018512
03:00+4сз512883 0.0 1019382
06:00+3сз511905 0.0 1021382
09:00+9ссз710614 0.0 10231055
12:00+12ссз810465 0.0 10242028
15:00+14ссз7941100 0.0 10242627
18:00+13ссз67505 0.0 10261887
21:00+8ссз33664 0.0 102828
10 мая, пн
пн1000:00+6ссз22715 0.0 102817
03:00+5ссз22765 0.0 102911
06:00+5с227932 0.0 103025
09:00+11ссв34585 0.0 1030770
12:00+14ссв45393 0.0 10291857
15:00+15с55381 0.0 10281730
18:00+14с56443 0.0 10271681
21:00+9ссв35674 0.0 102767
11 мая, вт
вт1100:00+8с47753 0.0 1026121
03:00+6с49820 0.0 1025160
06:00+6ссз5138310 0.0 1024317
09:00+12с8115763 0.0 1022619
12:00+14ссв796028 0.0 1022802
15:00+16с7963100 0.0 10201153
18:00+12св51082100 0.1 1020779
21:00+9ссв489322 0.1 1020193
12 мая, ср
ср1200:00+7св37895 0.0 1020136
03:00+6с488864 0.0 1018147
06:00+8ссв598890 0.1 1016517
09:00+10св676679 0.1 10151204
12:00+11св666769 0.2 10151072
15:00+13в345778 0.8 10141491
18:00+13юв456049 0.4 10141127
21:00+9вюв33755 0.4 101431